#timestamp,LO_Frequency,Hit,StdDev 
1508209215.8,286046998.6,N
1508209235.7,286046998.3,N
1508209255.5,286046997.6,N
1508209275.3,286046995.9,N
1508209295.1,286046993.3,N
1508209315.9,286046993.4,N
1508209335.7,286046996.1,N
1508209355.5,286046997.0,N
1508209375.4,286046997.6,N
1508209395.2,286046994.9,N
1508209415.0,286046998.8,N
1508209415.9,286046998.8,N
1508209435.8,286046999.5,N
1508209455.6,286047000.7,N
1508209475.4,286047002.1,N
1508209495.3,286046998.1,N
1508209515.1,286046997.8,N
1508209516.0,286046997.8,N
1508209535.8,286046998.4,N
1508209555.7,286046996.8,N
1508209575.5,286046996.0,N
1508209595.3,286046996.3,N
1508209615.2,286046993.9,N
1508209635.9,286046992.3,N
1508209655.7,286046993.2,N
1508209675.6,286046993.1,N
1508209695.4,286046992.9,N
1508209715.2,286046992.5,Y
1508209735.1,286046996.4,P
1508209736.0,286046996.4,P
1508209755.8,286046996.4,P
1508209775.6,286046996.6,Y
1508209795.5,286047000.9,P
1508209815.3,286047000.1,N
1508209835.1,286047002.2,N
1508209855.9,286047000.2,N
1508209875.7,286046998.9,N
1508209895.5,286047000.9,N
1508209915.4,286047000.3,N
1508209935.2,286047002.8,N
1508209955.0,286047004.4,N
1508209955.9,286047004.4,N
1508209975.8,286047000.3,N
1508209995.6,286047001.7,N
1508210015.4,286046999.1,N
1508210035.2,286046997.8,N
1508210055.1,286046994.0,N
1508210056.0,286046994.0,N
1508210075.8,286046993.1,N
1508210095.6,286046992.1,N
1508210115.5,286046991.8,N
1508210135.3,286046995.7,N
1508210155.1,286046993.6,N
1508210175.9,286046995.5,N
1508210195.7,286046993.7,N
1508210215.5,286046993.9,N
1508210235.4,286046990.4,N
1508210255.2,286046994.2,N
1508210275.0,286046994.1,N
1508210275.9,286046994.1,N
1508210295.8,286046993.6,N
1508210315.6,286046989.3,N
1508210335.4,286046989.7,N
1508210355.3,286046989.1,N
1508210375.1,286046989.2,N
1508210376.0,286046989.2,N
1508210395.8,286046989.4,N
1508210415.6,286046991.0,N
1508210435.5,286046991.0,N
1508210455.3,286046989.2,N
1508210475.1,286046992.0,N
1508210495.9,286046992.5,N
1508210515.7,286046988.5,Y
1508210535.5,286046997.5,P
1508210555.4,286046998.2,N
1508210575.2,286047004.3,N
1508210595.0,286047000.3,N
1508210595.9,286047000.3,N
1508210615.8,286046998.5,N
1508210635.6,286047000.4,N
1508210655.4,286047000.0,N
1508210675.3,286046999.9,N
1508210695.1,286046998.2,N
1508210696.0,286046998.2,N
1508210715.8,286046996.5,N
1508210735.7,286046998.2,N
1508210755.5,286046998.0,N
1508210775.3,286046996.8,N
1508210795.2,286046994.7,N
1508210815.9,286047002.4,N
1508210835.7,286046999.7,N
1508210855.6,286047002.4,N
1508210875.4,286047007.2,N
1508210895.2,286047006.9,N
1508210915.1,286047006.9,N
1508210916.0,286047006.9,N
1508210935.8,286047009.9,N
1508210955.6,286047007.8,N
1508210975.4,286047011.4,N
1508210995.3,286047012.6,N
1508211015.1,286047018.4,Y
1508211035.8,286047019.0,P
1508211055.7,286047018.5,N
1508211075.5,286047016.1,N
1508211095.3,286047014.9,N
1508211115.2,286047016.7,N
1508211135.0,286047014.7,N
1508211135.9,286047014.7,N
1508211155.8,286047016.1,Y
1508211175.6,286046998.2,P
1508211195.4,286046997.4,N
1508211215.2,286046999.2,N
1508211235.1,286046997.7,N
1508211236.0,286046997.7,N
1508211255.8,286046994.9,N
1508211275.6,286046996.3,N
1508211295.5,286046991.8,N
1508211315.3,286046995.6,N
1508211335.1,286046993.9,N
1508211355.9,286046994.5,N
1508211375.7,286046995.8,N
1508211395.5,286046994.0,N
1508211415.4,286046990.6,N
1508211435.2,286046996.3,N
1508211455.0,286046994.4,N
1508211455.9,286046994.4,N
1508211475.8,286046993.1,N
1508211495.6,286046992.2,N
1508211515.4,286046994.1,N
1508211535.3,286046995.1,N
1508211555.1,286046994.3,N
1508211556.0,286046994.3,N
1508211575.8,286046992.3,N
1508211595.6,286046993.9,N
1508211615.5,286046996.1,N
1508211635.3,286046993.4,N
1508211655.1,286046997.6,N
1508211675.9,286046995.9,N
1508211695.7,286046992.3,N
1508211715.5,286046992.6,Y
1508211735.4,286047002.6,P
1508211755.2,286046999.3,N
1508211775.0,286046996.8,N
1508211775.9,286046996.8,N
1508211795.8,286046997.5,N
1508211815.6,286046998.0,N
1508211835.4,286046993.4,N
1508211855.3,286046993.5,N
1508211875.1,286046995.5,N
1508211876.0,286046995.5,N
1508211895.8,286046995.5,N
1508211915.7,286046997.6,N
1508211935.5,286046993.3,N
1508211955.3,286046990.4,Y
1508211975.2,286046995.7,P
1508211995.9,286046997.3,P
1508212015.7,286046994.8,P
1508212035.6,286046997.1,Y
1508212055.4,286046998.3,P
1508212075.2,286046999.7,N
1508212095.1,286046998.3,N
1508212096.0,286046998.3,N
1508212115.8,286047001.0,N
1508212135.6,286046998.4,N
1508212155.5,286046996.9,N
1508212175.3,286046995.8,N
1508212195.1,286046996.9,N
1508212215.9,286046996.9,N
1508212235.7,286046996.7,N
1508212255.5,286046996.3,N
1508212275.3,286046996.7,N
1508212295.2,286046996.9,N
1508212315.9,286046998.9,N
1508212335.7,286046996.6,N
1508212355.6,286046999.1,N
1508212375.4,286046997.4,N
1508212395.2,286046995.8,Y
1508212415.1,286046997.4,P
1508212416.0,286046997.4,P
1508212435.8,286046998.8,P
1508212455.6,286047002.8,Y
1508212475.5,286047004.3,P
1508212495.3,286047002.0,N
1508212515.1,286047000.5,N
1508212535.9,286046998.8,N
1508212555.7,286046997.0,N
1508212575.5,286047001.0,N
1508212595.4,286046998.9,N
1508212615.2,286046998.7,N
1508212635.0,286046999.1,N
1508212635.9,286046999.1,N
1508212655.8,286046999.1,N
1508212675.6,286046997.0,N
1508212695.4,286047001.0,N
1508212715.3,286047003.1,N
1508212735.1,286047006.0,N
1508212736.0,286047006.0,N
1508212755.8,286047004.0,N
1508212775.7,286047006.9,N
1508212795.5,286047003.0,N
